{"data":{"norad_id":66758,"epoch":"2026-05-25T03:50:50.821152Z","epoch_age_seconds":61367,"freshness":"FRESH","line1":"1 66758U 25276CW  26145.16031043  .00005016  00000+0  23604-3 0  9999","line2":"2 66758  97.4191 219.2042 0002397  76.0714 284.0788 15.19997369 26937","mean_motion":15.19997369,"eccentricity":0.0002397,"inclination_deg":97.4191,"raan_deg":219.2042,"arg_perigee_deg":76.0714,"mean_anomaly_deg":284.0788,"bstar":0.00023604,"rev_number":2693,"period_min":94.737006087541,"perigee_km":504.19846616318,"apogee_km":507.49864883945,"semimajor_km":6883.9855575013,"source":"CELESTRAK","updated_at":"2026-05-25T13:38:06.453882Z"}}